When you browse on this site, cookies collect data to enhance your experience and personalize the content and advertising you see.
Visit our Privacy Policy to learn more. By continuing to use the site, you agree to this use of cookies and data.
  • In Österreich
  • Länderverzeichnis
  • Für 7 Tage
  • Wassertemperatur
  • Wetterkarte
  • News
  • Widgets
  • user-avatar
    Anmelden

    Stündliche Wetter El Arenal

    Heute, 5 Juni, Freitag

    Zeit Temperatur Niederschläge Wind Luftdruck Luftfeuchtigkeit
    00:00 +16°C° 0 mm 1 m/S 589 mmHg 91%
    01:00 +15°C° 0 mm 1 m/S 588 mmHg 91%
    02:00 +15°C° 0 mm 1 m/S 588 mmHg 90%
    03:00 +14°C° 0 mm 0 m/S 588 mmHg 91%
    04:00 +13°C° 0 mm 0 m/S 588 mmHg 92%
    05:00 +13°C° 0 mm 0 m/S 588 mmHg 93%
    06:00 +15°C° 0 mm 0 m/S 589 mmHg 83%
    07:00 +17°C° 0 mm 0 m/S 589 mmHg 72%
    08:00 +20°C° 0 mm 1 m/S 590 mmHg 62%
    09:00 +21°C° 0 mm 2 m/S 591 mmHg 54%
    10:00 +24°C° 0 mm 3 m/S 591 mmHg 46%
    11:00 +26°C° 0 mm 4 m/S 592 mmHg 37%
    12:00 +26°C° 0 mm 5 m/S 591 mmHg 40%
    13:00 +26°C° 0 mm 5 m/S 591 mmHg 42%
    14:00 +26°C° 0 mm 6 m/S 590 mmHg 44%
    15:00 +24°C° 0 mm 6 m/S 590 mmHg 48%
    16:00 +22°C° 0 mm 6 m/S 589 mmHg 52%
    17:00 +21°C° 0 mm 5 m/S 589 mmHg 56%
    18:00 +20°C° 0 mm 4 m/S 589 mmHg 64%
    19:00 +18°C° 0 mm 3 m/S 589 mmHg 73%
    20:00 +17°C° 0 mm 2 m/S 589 mmHg 82%
    21:00 +16°C° 0 mm 2 m/S 589 mmHg 85%
    22:00 +15°C° 0 mm 1 m/S 589 mmHg 88%
    23:00 +15°C° 0 mm 1 m/S 589 mmHg 92%

    Morgen, 6 Juni, Samstag

    Zeit Temperatur Niederschläge Wind Luftdruck Luftfeuchtigkeit
    00:00 +15°C° 0 mm 1 m/S 588 mmHg 92%
    01:00 +13°C° 0 mm 0 m/S 588 mmHg 92%
    02:00 +13°C° 0 mm 0 m/S 587 mmHg 92%
    03:00 +12°C° 0 mm 0 m/S 587 mmHg 92%
    04:00 +12°C° 0 mm 0 m/S 587 mmHg 91%
    05:00 +12°C° 0 mm 0 m/S 587 mmHg 91%
    06:00 +14°C° 0 mm 0 m/S 588 mmHg 79%
    07:00 +18°C° 0 mm 1 m/S 589 mmHg 67%
    08:00 +21°C° 0 mm 1 m/S 591 mmHg 54%
    09:00 +22°C° 0 mm 1 m/S 591 mmHg 48%
    10:00 +24°C° 0 mm 2 m/S 591 mmHg 41%
    11:00 +25°C° 0 mm 3 m/S 592 mmHg 35%
    12:00 +26°C° 0 mm 4 m/S 591 mmHg 34%
    13:00 +26°C° 0 mm 4 m/S 591 mmHg 34%
    14:00 +27°C° 0 mm 5 m/S 591 mmHg 33%
    15:00 +26°C° 0 mm 5 m/S 590 mmHg 42%
    16:00 +23°C° 0 mm 5 m/S 589 mmHg 50%
    17:00 +22°C° 0 mm 5 m/S 589 mmHg 59%
    18:00 +20°C° 0 mm 4 m/S 589 mmHg 68%
    19:00 +19°C° 0 mm 3 m/S 589 mmHg 76%
    20:00 +17°C° 0 mm 2 m/S 589 mmHg 85%
    21:00 +16°C° 0 mm 2 m/S 589 mmHg 87%
    22:00 +16°C° 0 mm 1 m/S 589 mmHg 88%
    23:00 +15°C° 0 mm 1 m/S 588 mmHg 90%

    übermorgen, 7 Juni, Sonntag

    Zeit Temperatur Niederschläge Wind Luftdruck Luftfeuchtigkeit
    00:00 +15°C° 0 mm 1 m/S 588 mmHg 88%
    01:00 +14°C° 0 mm 1 m/S 587 mmHg 86%
    02:00 +13°C° 0 mm 0 m/S 587 mmHg 85%
    03:00 +13°C° 0 mm 0 m/S 587 mmHg 85%
    04:00 +12°C° 0 mm 0 m/S 587 mmHg 85%
    05:00 +12°C° 0 mm 0 m/S 586 mmHg 84%
    06:00 +16°C° 0 mm 1 m/S 588 mmHg 72%
    07:00 +19°C° 0 mm 1 m/S 589 mmHg 60%
    08:00 +22°C° 0 mm 1 m/S 591 mmHg 48%
    09:00 +24°C° 0 mm 2 m/S 591 mmHg 42%
    10:00 +26°C° 0 mm 2 m/S 591 mmHg 35%
    11:00 +27°C° 0 mm 3 m/S 591 mmHg 29%
    12:00 +28°C° 0 mm 4 m/S 591 mmHg 28%
    13:00 +29°C° 0 mm 4 m/S 591 mmHg 27%
    14:00 +29°C° 0 mm 5 m/S 591 mmHg 26%
    15:00 +28°C° 0 mm 4 m/S 590 mmHg 32%
    16:00 +27°C° 0 mm 4 m/S 590 mmHg 38%
    17:00 +26°C° 0 mm 4 m/S 589 mmHg 44%
    18:00 +24°C° 0.1 mm 3 m/S 589 mmHg 52%
    19:00 +21°C° 0.1 mm 2 m/S 589 mmHg 61%
    20:00 +21°C° 0.1 mm 1 m/S 589 mmHg 70%
    21:00 +20°C° 0 mm 1 m/S 589 mmHg 71%
    22:00 +20°C° 0 mm 1 m/S 589 mmHg 72%
    23:00 +19°C° 0 mm 1 m/S 588 mmHg 73%

    8 Juni, Montag

    Zeit Temperatur Niederschläge Wind Luftdruck Luftfeuchtigkeit
    00:00 +17°C° 0 mm 0 m/S 588 mmHg 72%
    01:00 +17°C° 0 mm 0 m/S 588 mmHg 71%
    02:00 +18°C° 0 mm 0 m/S 588 mmHg 70%
    03:00 +17°C° 0 mm 0 m/S 588 mmHg 71%
    04:00 +17°C° 0 mm 0 m/S 588 mmHg 73%
    05:00 +18°C° 0 mm 1 m/S 588 mmHg 74%
    06:00 +20°C° 0 mm 1 m/S 589 mmHg 66%
    07:00 +22°C° 0 mm 1 m/S 590 mmHg 58%
    08:00 +24°C° 0 mm 2 m/S 591 mmHg 50%
    09:00 +26°C° 0 mm 2 m/S 592 mmHg 44%
    10:00 +28°C° 0 mm 3 m/S 592 mmHg 38%
    11:00 +29°C° 0 mm 3 m/S 592 mmHg 32%
    12:00 +29°C° 0 mm 3 m/S 592 mmHg 30%
    13:00 +30°C° 0 mm 4 m/S 591 mmHg 29%
    14:00 +30°C° 0 mm 4 m/S 591 mmHg 27%
    15:00 +29°C° 0.1 mm 4 m/S 591 mmHg 34%
    16:00 +28°C° 0.1 mm 4 m/S 590 mmHg 41%
    17:00 +26°C° 0.1 mm 3 m/S 590 mmHg 48%
    18:00 +25°C° 0.2 mm 3 m/S 589 mmHg 55%
    19:00 +23°C° 0.2 mm 2 m/S 589 mmHg 62%
    20:00 +21°C° 0.2 mm 2 m/S 589 mmHg 68%
    21:00 +20°C° 0.1 mm 2 m/S 589 mmHg 69%
    22:00 +20°C° 0.1 mm 1 m/S 589 mmHg 70%
    23:00 +20°C° 0.1 mm 1 m/S 589 mmHg 71%

    9 Juni, Dienstag

    Zeit Temperatur Niederschläge Wind Luftdruck Luftfeuchtigkeit
    00:00 +19°C° 0 mm 1 m/S 589 mmHg 72%
    01:00 +19°C° 0 mm 1 m/S 588 mmHg 73%
    02:00 +16°C° 0 mm 0 m/S 588 mmHg 73%
    03:00 +16°C° 0 mm 0 m/S 588 mmHg 74%
    04:00 +16°C° 0 mm 0 m/S 588 mmHg 75%
    05:00 +16°C° 0 mm 0 m/S 588 mmHg 76%
    06:00 +20°C° 0 mm 1 m/S 590 mmHg 65%
    07:00 +23°C° 0 mm 1 m/S 591 mmHg 55%
    08:00 +25°C° 0 mm 1 m/S 592 mmHg 45%
    09:00 +27°C° 0 mm 2 m/S 592 mmHg 38%
    10:00 +28°C° 0 mm 3 m/S 593 mmHg 31%
    11:00 +30°C° 0 mm 4 m/S 593 mmHg 25%
    12:00 +30°C° 0 mm 5 m/S 593 mmHg 24%
    13:00 +30°C° 0 mm 6 m/S 593 mmHg 23%
    14:00 +32°C° 0 mm 7 m/S 592 mmHg 22%
    15:00 +29°C° 0 mm 7 m/S 592 mmHg 25%
    16:00 +28°C° 0 mm 6 m/S 591 mmHg 28%
    17:00 +27°C° 0 mm 6 m/S 590 mmHg 31%
    18:00 +25°C° 0 mm 5 m/S 590 mmHg 39%
    19:00 +22°C° 0 mm 3 m/S 590 mmHg 47%
    20:00 +20°C° 0 mm 2 m/S 589 mmHg 55%
    21:00 +19°C° 0 mm 2 m/S 590 mmHg 62%
    22:00 +19°C° 0 mm 1 m/S 590 mmHg 70%
    23:00 +18°C° 0 mm 1 m/S 590 mmHg 78%

    10 Juni, Mittwoch

    Zeit Temperatur Niederschläge Wind Luftdruck Luftfeuchtigkeit
    00:00 +18°C° 0 mm 1 m/S 589 mmHg 80%
    01:00 +16°C° 0 mm 1 m/S 589 mmHg 83%
    02:00 +15°C° 0 mm 0 m/S 589 mmHg 86%
    03:00 +14°C° 0 mm 0 m/S 589 mmHg 86%
    04:00 +14°C° 0 mm 0 m/S 589 mmHg 87%
    05:00 +13°C° 0 mm 0 m/S 588 mmHg 88%
    06:00 +18°C° 0 mm 1 m/S 590 mmHg 74%
    07:00 +19°C° 0 mm 2 m/S 591 mmHg 61%
    08:00 +23°C° 0 mm 2 m/S 592 mmHg 48%
    09:00 +24°C° 0 mm 3 m/S 593 mmHg 42%
    10:00 +26°C° 0 mm 5 m/S 593 mmHg 36%
    11:00 +27°C° 0 mm 6 m/S 594 mmHg 29%
    12:00 +27°C° 0 mm 7 m/S 593 mmHg 32%
    13:00 +27°C° 0 mm 7 m/S 593 mmHg 34%
    14:00 +27°C° 0 mm 8 m/S 592 mmHg 36%
    15:00 +24°C° 0 mm 8 m/S 592 mmHg 42%
    16:00 +23°C° 0 mm 7 m/S 591 mmHg 48%
    17:00 +21°C° 0 mm 7 m/S 591 mmHg 54%
    18:00 +20°C° 0 mm 5 m/S 591 mmHg 63%
    19:00 +19°C° 0 mm 4 m/S 591 mmHg 72%
    20:00 +17°C° 0 mm 2 m/S 591 mmHg 81%
    21:00 +17°C° 0 mm 2 m/S 591 mmHg 85%
    22:00 +16°C° 0 mm 1 m/S 591 mmHg 88%
    23:00 +16°C° 0 mm 1 m/S 591 mmHg 92%
    Mehr zeigen